Wenatchee, WA
on Tuesday, February 19, 2013

Tuesday
Previous Day Next Day
Daily Summary
 ActualAverageRecord
Temperature
Mean Temperature °F 32°F  
Max Temperature 36°F 40°F 58°F (1965)
Min Temperature 28°F 24°F 10°F (1986)
Degree Days
Heating Degree Days 33 33  
Month to date heating degree days 632 653  
Since 1 July heating degree days 4575 4910  
Cooling Degree Days 0 0  
Month to date cooling degree days 0 0  
Year to date cooling degree days 0 0  
Moisture
Dew Point 24°F   
Average Humidity 63    
Maximum Humidity 82    
Minimum Humidity 40    
Precipitation
Precipitation 0.18 in 0.06 in 0.50 in (1993)
Month to date precipitation 0.21 1.01  
Year to date precipitation 1.67 2.88  
Snow
Snow 1.40 in 0.10 in in ()
Month to date snowfall 1.5 4.5  
Since 1 July snowfall 45.3 44.9  
Snow Depth 1.00 in   
Wind
Wind Speed 3 mph   
Max Wind Speed 10 mph   
Max Gust Speed mph   
Visibility 10 miles   
Events     

Key: T is trace of precipitation, MM is missing value
Source: NWS Daily Summary
Time(PST)TemperatureDew PointHumidity Pressure Visibility Wind DirectionWind SpeedGust SpeedPrecipitationEvents Conditions
12:55 AM 30.9°F 25.0°F 79% 29.80 in 10.0 miles Calm Calm - N/A   Overcast
1:55 AM 30.9°F 26.1°F 82% 29.79 in 10.0 miles Calm Calm - N/A   Overcast
2:55 AM 30.9°F 26.1°F 82% 29.79 in 10.0 miles NW 5.8 mph - N/A   Overcast
3:55 AM 32.0°F 26.1°F 79% 29.78 in 10.0 miles NNW 4.6 mph - N/A   Overcast
4:55 AM 32.0°F 26.1°F 79% 29.79 in 10.0 miles WNW 4.6 mph - N/A   Overcast
6:55 AM 30.9°F 26.1°F 82% 29.79 in 10.0 miles WNW 6.9 mph - N/A   Mostly Cloudy
7:55 AM 30.9°F 24.1°F 76% 29.80 in 10.0 miles WNW 6.9 mph - N/A   Clear
8:55 AM 34.0°F 25.0°F 70% 29.81 in 10.0 miles West 6.9 mph - N/A   Mostly Cloudy
9:55 AM 37.9°F 24.1°F 57% 29.79 in 10.0 miles NW 10.4 mph - N/A   Clear
10:55 AM 39.9°F 24.1°F 53% 29.79 in 10.0 miles NW 8.1 mph - N/A   Clear
11:55 AM 42.1°F 24.1°F 49% 29.79 in 10.0 miles SW 5.8 mph - N/A   Partly Cloudy
12:55 PM 43.0°F 24.1°F 47% 29.78 in 10.0 miles Variable 5.8 mph - N/A   Scattered Clouds
1:55 PM 44.1°F 21.9°F 42% 29.78 in 10.0 miles Calm Calm - N/A   Overcast
2:55 PM 45.0°F 21.9°F 40% 29.78 in 10.0 miles Calm Calm - N/A   Partly Cloudy
4:55 PM 44.1°F 25.0°F 47% 29.81 in 10.0 miles SSW 3.5 mph - N/A   Overcast
5:55 PM 41.0°F 25.0°F 53% 29.83 in 10.0 miles East 3.5 mph - N/A   Scattered Clouds
6:55 PM 39.0°F 23.0°F 53% 29.85 in 10.0 miles Calm Calm - N/A   Clear
7:55 PM 36.0°F 23.0°F 59% 29.88 in 10.0 miles Calm Calm - N/A   Clear
8:55 PM 34.0°F 23.0°F 64% 29.90 in 10.0 miles NNW 4.6 mph - N/A   Mostly Cloudy
9:55 PM 36.0°F 23.0°F 59% 29.91 in 10.0 miles WNW 4.6 mph - N/A   Clear
10:55 PM 32.0°F 23.0°F 69% 29.94 in 10.0 miles Calm Calm - N/A   Clear
11:55 PM 30.0°F 21.9°F 72% 29.95 in 10.0 miles Calm Calm - N/A   Clear
Moon Phase
Feb. 19 Feb. 25 Mar. 04 Mar. 11 Mar. 19
Sunrise:06:58 AM (PST) Moon Rise:11:54 AM (PST)2/19
Sunset:05:31 PM (PST) Moon Set:02:47 AM (PST)2/19

Copyright © 2014 The Weather Underground, Inc.